STARLINK AU (44277 NORAD) Tracking and Keplerian Element Data

This shows tracking and keplerian element data for the satellite.

Feedback or suggestion? Click here.




ElementValue
Catalog44277
NameSTARLINK AU
Epoch Orbit468
Epoch Day174.14527205
Epoch Year2019
RAAN36.9143
Inclination53.0039
Eccentricity0.0002321
Argument of Perigee98.9936
Mean Anonmoly261.1314
Mean Motion15.05437024
Decay Rate1.511E-05
L11 44277U 19029AU 19174.14527205 .00001511 00000-0 12333-3 0 9996
L22 44277 53.0039 36.9143 0002321 98.9936 261.1314 15.05437024 4681

Live tracking and technical data element details for STARLINK AU (NORAD 44277). STARLINK AU can be tracked NOW for your location showing map with azimuth and elevation plus other details from your city location.

Track the satellite on the map from your city or location and see movement details for azimuth, elevation, latitude, longitude, range, height, and movement on the map or in text.







IsCatalogInMostPopularTable: catalog: 44277, numindb: 34
Update: records affected: 1



GetName: 44277 STARLINK AU

Hit Count: updated at: Tue, 16 Jul 2019 20:43:13 GMT